QPF
0.00 0.00 0.00 0.00 0.00 0.00 0.00 0.00 0.00 0.00 0.00 0.00 0.00 0.00 0.00 0.00 0.00 0.00 0.00 0.00 0.00 0.00 0.00 0.00 0.00 0.01 0.01 0.00 0.00 0.00 0.00 0.00 0.00 0.00 0.01 0.01 0.01 0.01 0.01 0.01 0.01 0.01 0.01
0.00 0.00 0.00 0.00 0.00 0.00 0.00 0.00 0.00 0.00 0.00 0.00 0.00 0.00 0.00 0.00 0.00 0.00 0.00 0.00 0.00 0.00 0.00 0.00 0.00 0.00 0.00 0.00 0.00 0.00 0.00 0.00 0.01 0.02 0.02 0.02 0.03 0.03 0.01 0.00 0.00 0.00 0.01
0.00 0.00 0.00 0.00 0.00 0.00 0.00 0.00 0.00 0.00 0.00 0.00 0.00 0.00 0.00 0.00 0.00 0.00 0.00 0.00 0.00 0.00 0.00 0.00 0.00 0.00 0.00 0.00 0.00 0.00 0.00 0.01 0.01 0.02 0.02 0.02 0.03 0.04 0.02 0.00 0.00 0.00 0.01
0.00 0.00 0.00 0.00 0.00 0.00 0.00 0.00 0.00 0.00 0.00 0.00 0.00 0.00 0.00 0.00 0.00 0.00 0.00 0.00 0.00 0.00 0.00 0.00 0.00 0.00 0.00 0.00 0.00 0.00 0.00 0.00 0.01 0.01 0.00 0.01 0.02 0.03 0.01 0.00 0.00 0.00 0.01
0.00 0.00 0.00 0.00 0.00 0.00 0.00 0.00 0.00 0.00 0.00 0.00 0.00 0.00 0.00 0.00 0.00 0.00 0.00 0.00 0.00 0.00 0.00 0.00 0.00 0.00 0.00 0.00 0.00 0.00 0.01 0.01 0.01 0.01 0.00 0.00 0.01 0.02 0.01 0.00 0.00 0.00 0.00
0.01 0.00 0.00 0.00 0.00 0.00 0.00 0.00 0.00 0.00 0.00 0.00 0.00 0.00 0.00 0.00 0.00 0.00 0.00 0.00 0.00 0.00 0.00 0.00 0.00 0.00 0.00 0.00 0.00 0.01 0.01 0.01 0.01 0.01 0.00 0.00 0.01 0.02 0.01 0.01 0.01 0.00 0.00
0.01 0.00 0.00 0.00 0.00 0.00 0.00 0.00 0.00 0.00 0.00 0.00 0.00 0.00 0.00 0.00 0.00 0.00 0.00 0.00 0.00 0.00 0.00 0.00 0.00 0.00 0.00 0.00 0.00 0.00 0.01 0.01 0.00 0.01 0.01 0.01 0.01 0.02 0.02 0.01 0.01 0.01 0.01
0.01 0.00 0.00 0.00 0.00 0.00 0.00 0.00 0.00 0.00 0.00 0.00 0.00 0.00 0.00 0.00 0.00 0.00 0.00 0.00 0.00 0.00 0.00 0.00 0.00 0.00 0.00 0.00 0.00 0.00 0.00 0.00 0.00 0.01 0.01 0.01 0.01 0.02 0.02 0.02 0.01 0.01 0.01
0.01 0.01 0.01 0.00 0.00 0.00 0.00 0.01 0.01 0.00 0.00 0.00 0.00 0.00 0.00 0.00 0.00 0.00 0.00 0.00 0.00 0.00 0.00 0.00 0.00 0.00 0.00 0.00 0.00 0.00 0.00 0.00 0.00 0.00 0.00 0.00 0.01 0.02 0.02 0.02 0.02 0.01 0.01
0.03 0.03 0.03 0.01 0.01 0.01 0.01 0.01 0.01 0.01 0.00 0.01 0.01 0.00 0.00 0.00 0.00 0.00 0.00 0.00 0.00 0.00 0.00 0.00 0.00 0.00 0.00 0.00 0.00 0.00 0.00 0.00 0.00 0.00 0.00 0.01 0.02 0.04 0.04 0.03 0.02 0.01 0.01
0.07 0.06 0.04 0.03 0.02 0.02 0.01 0.01 0.02 0.02 0.01 0.01 0.01 0.01 0.00 0.00 0.00 0.00 0.00 0.00 0.00 0.00 0.00 0.00 0.00 0.00 0.00 0.00 0.00 0.00 0.00 0.00 0.00 0.00 0.00 0.01 0.03 0.05 0.06 0.04 0.02 0.02 0.01
0.12 0.09 0.06 0.05 0.05 0.05 0.03 0.02 0.02 0.01 0.01 0.01 0.00 0.00 0.00 0.00 0.00 0.00 0.00 0.01 0.01 0.01 0.01 0.01 0.00 0.00 0.00 0.00 0.00 0.00 0.00 0.00 0.00 0.00 0.00 0.01 0.05 0.07 0.09 0.07 0.04 0.03 0.01
0.11 0.09 0.08 0.10 0.11 0.10 0.08 0.06 0.04 0.02 0.01 0.00 0.00 0.00 0.00 0.00 0.00 0.00 0.00 0.00 0.01 0.01 0.01 0.01 0.01 0.01 0.01 0.01 0.01 0.00 0.00 0.00 0.00 0.00 0.00 0.01 0.04 0.08 0.11 0.10 0.08 0.06 0.04
0.11 0.11 0.09 0.09 0.11 0.11 0.10 0.09 0.08 0.06 0.04 0.02 0.01 0.00 0.00 0.00 0.00 0.00 0.00 0.00 0.01 0.01 0.02 0.02 0.02 0.02 0.01 0.01 0.01 0.01 0.01 0.01 0.00 0.00 0.01 0.01 0.03 0.08 0.14 0.15 0.13 0.11 0.08
0.14 0.13 0.11 0.10 0.11 0.11 0.11 0.09 0.07 0.06 0.05 0.04 0.02 0.01 0.00 0.00 0.00 0.01 0.01 0.01 0.02 0.03 0.04 0.04 0.04 0.03 0.03 0.02 0.01 0.02 0.01 0.01 0.01 0.01 0.01 0.02 0.04 0.08 0.15 0.17 0.15 0.14 0.13
0.22 0.17 0.16 0.13 0.14 0.15 0.14 0.11 0.08 0.06 0.05 0.03 0.04 0.03 0.02 0.01 0.01 0.02 0.03 0.05 0.05 0.06 0.07 0.07 0.06 0.05 0.05 0.04 0.03 0.02 0.03 0.03 0.03 0.02 0.02 0.02 0.04 0.07 0.11 0.14 0.17 0.17 0.16
0.30 0.30 0.24 0.20 0.21 0.22 0.22 0.18 0.16 0.14 0.12 0.09 0.08 0.08 0.07 0.07 0.07 0.08 0.10 0.10 0.10 0.09 0.09 0.08 0.08 0.08 0.08 0.06 0.04 0.04 0.04 0.04 0.04 0.04 0.04 0.03 0.05 0.07 0.09 0.12 0.15 0.17 0.17
0.24 0.30 0.30 0.27 0.26 0.28 0.27 0.21 0.18 0.18 0.17 0.15 0.14 0.17 0.17 0.15 0.15 0.15 0.16 0.15 0.13 0.12 0.12 0.12 0.10 0.09 0.08 0.08 0.07 0.06 0.06 0.06 0.05 0.06 0.05 0.05 0.07 0.08 0.10 0.11 0.12 0.15 0.18
0.18 0.19 0.25 0.32 0.34 0.33 0.32 0.27 0.29 0.29 0.26 0.24 0.24 0.24 0.25 0.24 0.20 0.18 0.19 0.18 0.16 0.14 0.13 0.12 0.11 0.09 0.07 0.07 0.07 0.08 0.07 0.05 0.05 0.05 0.05 0.06 0.06 0.07 0.08 0.09 0.11 0.16 0.20
0.21 0.23 0.27 0.37 0.44 0.43 0.42 0.34 0.34 0.34 0.32 0.32 0.32 0.33 0.33 0.34 0.29 0.27 0.24 0.21 0.20 0.17 0.13 0.11 0.09 0.08 0.07 0.07 0.07 0.06 0.05 0.04 0.03 0.02 0.02 0.03 0.03 0.03 0.04 0.05 0.08 0.10 0.16
0.23 0.26 0.34 0.45 0.46 0.49 0.50 0.49 0.45 0.37 0.31 0.32 0.33 0.34 0.38 0.39 0.33 0.30 0.25 0.22 0.19 0.16 0.14 0.13 0.11 0.09 0.08 0.07 0.07 0.05 0.03 0.02 0.02 0.02 0.02 0.02 0.02 0.02 0.02 0.04 0.06 0.08 0.09
0.28 0.31 0.42 0.48 0.45 0.49 0.57 0.65 0.60 0.52 0.43 0.34 0.32 0.32 0.30 0.29 0.29 0.29 0.25 0.23 0.21 0.17 0.14 0.12 0.10 0.08 0.07 0.07 0.06 0.04 0.02 0.01 0.01 0.01 0.00 0.00 0.00 0.01 0.02 0.03 0.04 0.06 0.06
0.33 0.39 0.48 0.53 0.50 0.55 0.63 0.70 0.62 0.51 0.46 0.38 0.31 0.28 0.22 0.22 0.21 0.20 0.22 0.24 0.23 0.18 0.14 0.12 0.09 0.08 0.07 0.06 0.05 0.05 0.03 0.02 0.01 0.01 0.01 0.01 0.01 0.01 0.02 0.02 0.02 0.04 0.05
0.21 0.33 0.47 0.54 0.54 0.60 0.64 0.70 0.71 0.57 0.45 0.38 0.30 0.24 0.20 0.20 0.17 0.17 0.18 0.18 0.17 0.15 0.11 0.08 0.06 0.05 0.04 0.03 0.03 0.03 0.03 0.03 0.02 0.01 0.01 0.01 0.01 0.02 0.02 0.01 0.02 0.03 0.06
0.13 0.20 0.32 0.41 0.44 0.47 0.49 0.50 0.53 0.50 0.41 0.36 0.32 0.25 0.22 0.20 0.17 0.13 0.12 0.11 0.10 0.11 0.09 0.07 0.04 0.03 0.02 0.01 0.01 0.01 0.01 0.01 0.01 0.02 0.01 0.01 0.01 0.01 0.02 0.02 0.02 0.03 0.05
0.09 0.11 0.16 0.24 0.26 0.27 0.28 0.31 0.33 0.32 0.27 0.23 0.22 0.19 0.16 0.15 0.13 0.10 0.09 0.11 0.11 0.09 0.07 0.05 0.03 0.02 0.01 0.01 0.00 0.00 0.00 0.01 0.01 0.01 0.01 0.01 0.01 0.02 0.02 0.03 0.04 0.04 0.06
MSLP
1011.27 1011.06 1011.08 1011.27 1011.56 1011.84 1012.06 1012.19 1012.22 1012.20 1012.19 1012.24 1012.41 1012.71 1013.13 1013.62 1014.13 1014.61 1015.01 1015.32 1015.53 1015.68 1015.78 1015.87 1015.97 1016.10 1016.24 1016.40 1016.55 1016.70 1016.85 1016.99 1017.13 1017.29 1017.45 1017.63 1017.81 1017.99 1018.15 1018.30 1018.44 1018.57 1018.71
1010.86 1010.79 1010.93 1011.23 1011.60 1011.95 1012.22 1012.37 1012.42 1012.42 1012.42 1012.51 1012.71 1013.04 1013.49 1013.99 1014.49 1014.95 1015.31 1015.59 1015.77 1015.89 1015.99 1016.09 1016.20 1016.33 1016.47 1016.62 1016.75 1016.87 1016.98 1017.10 1017.23 1017.38 1017.56 1017.75 1017.95 1018.14 1018.31 1018.47 1018.60 1018.74 1018.88
1010.33 1010.40 1010.68 1011.10 1011.58 1012.01 1012.34 1012.55 1012.64 1012.68 1012.73 1012.86 1013.09 1013.44 1013.88 1014.35 1014.81 1015.21 1015.52 1015.74 1015.89 1016.00 1016.11 1016.22 1016.36 1016.51 1016.66 1016.80 1016.91 1017.01 1017.10 1017.19 1017.31 1017.47 1017.65 1017.86 1018.08 1018.28 1018.46 1018.61 1018.75 1018.88 1019.03
1009.80 1010.01 1010.43 1010.98 1011.55 1012.07 1012.48 1012.74 1012.89 1012.99 1013.08 1013.24 1013.50 1013.85 1014.26 1014.68 1015.08 1015.40 1015.64 1015.80 1015.92 1016.03 1016.15 1016.30 1016.48 1016.66 1016.84 1016.98 1017.09 1017.17 1017.23 1017.31 1017.42 1017.58 1017.77 1017.99 1018.21 1018.42 1018.60 1018.75 1018.88 1019.01 1019.15
1009.41 1009.76 1010.30 1010.95 1011.61 1012.20 1012.65 1012.97 1013.17 1013.30 1013.44 1013.63 1013.89 1014.22 1014.60 1014.96 1015.28 1015.53 1015.70 1015.82 1015.92 1016.03 1016.19 1016.38 1016.61 1016.84 1017.04 1017.20 1017.31 1017.37 1017.43 1017.49 1017.59 1017.74 1017.93 1018.15 1018.37 1018.57 1018.73 1018.87 1018.99 1019.10 1019.24
1009.27 1009.73 1010.36 1011.08 1011.79 1012.41 1012.89 1013.23 1013.45 1013.61 1013.77 1013.97 1014.24 1014.56 1014.89 1015.20 1015.46 1015.64 1015.76 1015.85 1015.95 1016.08 1016.27 1016.52 1016.79 1017.07 1017.30 1017.47 1017.58 1017.64 1017.68 1017.73 1017.82 1017.96 1018.14 1018.35 1018.55 1018.73 1018.87 1018.98 1019.08 1019.18 1019.30
1009.41 1009.95 1010.64 1011.39 1012.11 1012.72 1013.19 1013.51 1013.73 1013.89 1014.06 1014.27 1014.54 1014.84 1015.15 1015.43 1015.64 1015.78 1015.88 1015.95 1016.05 1016.21 1016.44 1016.73 1017.04 1017.35 1017.60 1017.79 1017.89 1017.95 1017.97 1018.01 1018.08 1018.20 1018.37 1018.55 1018.73 1018.88 1019.00 1019.08 1019.15 1019.23 1019.33
1009.78 1010.37 1011.08 1011.82 1012.51 1013.07 1013.49 1013.78 1013.96 1014.12 1014.29 1014.51 1014.78 1015.09 1015.40 1015.66 1015.86 1015.99 1016.06 1016.14 1016.25 1016.43 1016.68 1016.99 1017.33 1017.65 1017.91 1018.10 1018.20 1018.23 1018.25 1018.27 1018.32 1018.42 1018.57 1018.72 1018.87 1019.00 1019.08 1019.14 1019.19 1019.25 1019.35
1010.25 1010.87 1011.57 1012.28 1012.91 1013.41 1013.76 1013.99 1014.14 1014.28 1014.45 1014.69 1014.99 1015.32 1015.64 1015.91 1016.11 1016.24 1016.32 1016.40 1016.51 1016.70 1016.95 1017.27 1017.61 1017.92 1018.17 1018.34 1018.42 1018.45 1018.44 1018.44 1018.48 1018.56 1018.68 1018.81 1018.93 1019.03 1019.10 1019.14 1019.18 1019.24 1019.35
1010.66 1011.29 1011.97 1012.64 1013.21 1013.64 1013.93 1014.11 1014.24 1014.37 1014.56 1014.83 1015.16 1015.53 1015.88 1016.17 1016.39 1016.53 1016.61 1016.68 1016.79 1016.97 1017.21 1017.51 1017.82 1018.11 1018.34 1018.48 1018.54 1018.54 1018.52 1018.50 1018.52 1018.58 1018.67 1018.78 1018.88 1018.96 1019.02 1019.07 1019.12 1019.20 1019.32
1010.86 1011.50 1012.17 1012.80 1013.33 1013.71 1013.97 1014.13 1014.25 1014.39 1014.61 1014.92 1015.29 1015.70 1016.09 1016.41 1016.64 1016.79 1016.87 1016.94 1017.03 1017.18 1017.39 1017.66 1017.94 1018.19 1018.38 1018.50 1018.53 1018.51 1018.47 1018.44 1018.43 1018.47 1018.54 1018.63 1018.71 1018.79 1018.85 1018.91 1018.99 1019.10 1019.25
1010.78 1011.44 1012.12 1012.74 1013.24 1013.61 1013.86 1014.02 1014.17 1014.35 1014.62 1014.97 1015.39 1015.83 1016.25 1016.59 1016.83 1016.98 1017.06 1017.11 1017.19 1017.31 1017.49 1017.71 1017.95 1018.17 1018.33 1018.42 1018.44 1018.40 1018.34 1018.29 1018.26 1018.27 1018.32 1018.39 1018.46 1018.54 1018.62 1018.70 1018.81 1018.95 1019.14
1010.44 1011.13 1011.83 1012.46 1012.98 1013.36 1013.63 1013.84 1014.03 1014.27 1014.58 1014.98 1015.44 1015.91 1016.34 1016.68 1016.92 1017.07 1017.14 1017.18 1017.24 1017.34 1017.49 1017.69 1017.90 1018.09 1018.23 1018.31 1018.31 1018.26 1018.19 1018.12 1018.07 1018.05 1018.08 1018.12 1018.19 1018.26 1018.35 1018.46 1018.60 1018.77 1018.99
1009.95 1010.67 1011.39 1012.05 1012.59 1013.02 1013.34 1013.60 1013.86 1014.15 1014.52 1014.96 1015.44 1015.92 1016.34 1016.68 1016.91 1017.05 1017.11 1017.16 1017.21 1017.31 1017.45 1017.64 1017.84 1018.03 1018.16 1018.23 1018.23 1018.18 1018.10 1018.01 1017.94 1017.90 1017.89 1017.91 1017.96 1018.03 1018.13 1018.25 1018.41 1018.60 1018.82
1009.47 1010.20 1010.94 1011.62 1012.19 1012.66 1013.03 1013.36 1013.68 1014.04 1014.45 1014.91 1015.40 1015.87 1016.28 1016.59 1016.81 1016.94 1017.01 1017.06 1017.13 1017.25 1017.41 1017.61 1017.83 1018.02 1018.16 1018.24 1018.25 1018.20 1018.11 1018.02 1017.93 1017.86 1017.83 1017.83 1017.86 1017.92 1018.01 1018.13 1018.28 1018.46 1018.67
1009.16 1009.89 1010.61 1011.28 1011.86 1012.35 1012.77 1013.15 1013.53 1013.93 1014.37 1014.85 1015.33 1015.77 1016.15 1016.44 1016.65 1016.78 1016.87 1016.95 1017.06 1017.21 1017.41 1017.65 1017.89 1018.10 1018.27 1018.36 1018.38 1018.35 1018.27 1018.17 1018.08 1018.00 1017.95 1017.92 1017.93 1017.97 1018.04 1018.14 1018.27 1018.42 1018.58
1009.15 1009.81 1010.47 1011.09 1011.64 1012.12 1012.56 1012.97 1013.39 1013.83 1014.29 1014.77 1015.23 1015.64 1016.00 1016.27 1016.47 1016.61 1016.74 1016.86 1017.03 1017.24 1017.49 1017.76 1018.04 1018.28 1018.46 1018.58 1018.62 1018.61 1018.55 1018.46 1018.37 1018.29 1018.24 1018.20 1018.20 1018.21 1018.26 1018.32 1018.40 1018.50 1018.61
1009.44 1009.99 1010.54 1011.05 1011.53 1011.97 1012.39 1012.82 1013.26 1013.72 1014.19 1014.67 1015.11 1015.51 1015.84 1016.11 1016.32 1016.49 1016.66 1016.85 1017.07 1017.34 1017.64 1017.95 1018.25 1018.52 1018.72 1018.85 1018.92 1018.92 1018.89 1018.83 1018.77 1018.71 1018.67 1018.64 1018.63 1018.63 1018.65 1018.67 1018.70 1018.74 1018.77
1010.00 1010.39 1010.77 1011.13 1011.49 1011.85 1012.23 1012.65 1013.10 1013.57 1014.07 1014.55 1015.00 1015.39 1015.72 1016.00 1016.23 1016.45 1016.67 1016.91 1017.20 1017.51 1017.85 1018.19 1018.51 1018.78 1018.98 1019.13 1019.21 1019.25 1019.25 1019.23 1019.22 1019.20 1019.20 1019.19 1019.19 1019.19 1019.18 1019.17 1019.15 1019.12 1019.09
1010.71 1010.89 1011.07 1011.25 1011.45 1011.71 1012.03 1012.43 1012.88 1013.39 1013.91 1014.42 1014.89 1015.30 1015.66 1015.97 1016.24 1016.50 1016.78 1017.08 1017.41 1017.76 1018.12 1018.47 1018.78 1019.03 1019.23 1019.37 1019.47 1019.53 1019.58 1019.62 1019.67 1019.71 1019.76 1019.80 1019.83 1019.83 1019.82 1019.78 1019.71 1019.63 1019.53
1011.44 1011.41 1011.36 1011.34 1011.39 1011.53 1011.79 1012.16 1012.63 1013.17 1013.73 1014.29 1014.81 1015.27 1015.67 1016.03 1016.35 1016.67 1017.00 1017.34 1017.71 1018.08 1018.44 1018.77 1019.05 1019.28 1019.46 1019.59 1019.70 1019.79 1019.88 1019.98 1020.09 1020.21 1020.32 1020.42 1020.48 1020.51 1020.50 1020.44 1020.34 1020.22 1020.08
1012.11 1011.86 1011.61 1011.39 1011.29 1011.32 1011.52 1011.88 1012.37 1012.96 1013.59 1014.21 1014.79 1015.32 1015.79 1016.20 1016.59 1016.96 1017.33 1017.71 1018.09 1018.46 1018.80 1019.10 1019.35 1019.54 1019.69 1019.81 1019.92 1020.04 1020.17 1020.33 1020.51 1020.70 1020.87 1021.02 1021.13 1021.18 1021.17 1021.11 1021.00 1020.85 1020.68
1012.68 1012.25 1011.82 1011.45 1011.21 1011.16 1011.32 1011.67 1012.19 1012.83 1013.53 1014.23 1014.89 1015.49 1016.03 1016.50 1016.94 1017.36 1017.76 1018.16 1018.55 1018.91 1019.22 1019.49 1019.70 1019.86 1019.98 1020.09 1020.20 1020.34 1020.51 1020.72 1020.95 1021.19 1021.41 1021.60 1021.74 1021.81 1021.82 1021.75 1021.63 1021.47 1021.28
1013.18 1012.64 1012.07 1011.59 1011.26 1011.15 1011.28 1011.64 1012.20 1012.89 1013.65 1014.42 1015.15 1015.82 1016.42 1016.95 1017.43 1017.88 1018.31 1018.71 1019.09 1019.43 1019.73 1019.96 1020.14 1020.27 1020.38 1020.48 1020.60 1020.75 1020.95 1021.18 1021.45 1021.72 1021.97 1022.18 1022.33 1022.41 1022.41 1022.34 1022.22 1022.05 1021.85
1013.72 1013.10 1012.47 1011.93 1011.55 1011.41 1011.53 1011.90 1012.48 1013.21 1014.02 1014.84 1015.62 1016.34 1016.97 1017.54 1018.04 1018.51 1018.94 1019.34 1019.71 1020.03 1020.31 1020.52 1020.68 1020.81 1020.91 1021.01 1021.14 1021.30 1021.51 1021.75 1022.02 1022.30 1022.55 1022.75 1022.89 1022.96 1022.96 1022.88 1022.75 1022.57 1022.36
1014.37 1013.75 1013.11 1012.56 1012.17 1012.02 1012.14 1012.52 1013.11 1013.86 1014.68 1015.52 1016.32 1017.04 1017.69 1018.26 1018.77 1019.23 1019.65 1020.04 1020.39 1020.70 1020.96 1021.17 1021.33 1021.45 1021.56 1021.68 1021.81 1021.98 1022.19 1022.43 1022.68 1022.93 1023.16 1023.33 1023.45 1023.49 1023.46 1023.37 1023.21 1023.02 1022.80
Thickness
5793 5793 5789 5786 5784 5784 5784 5785 5785 5785 5783 5782 5780 5777 5775 5773 5771 5769 5767 5766 5764 5763 5761 5759 5758 5757 5755 5754 5752 5751 5749 5748 5747 5745 5744 5742 5740 5738 5736 5735 5733 5732 5730
5798 5793 5789 5785 5782 5781 5781 5781 5781 5780 5779 5778 5776 5773 5771 5770 5768 5766 5764 5763 5761 5760 5758 5756 5755 5753 5752 5750 5749 5747 5746 5745 5744 5743 5742 5740 5738 5736 5734 5732 5731 5730 5728
5796 5791 5787 5783 5780 5778 5777 5777 5777 5776 5775 5773 5771 5769 5767 5766 5764 5763 5761 5759 5758 5757 5755 5753 5752 5750 5749 5748 5746 5745 5744 5743 5742 5741 5739 5737 5735 5734 5732 5730 5729 5727 5725
5792 5788 5784 5780 5777 5775 5774 5773 5772 5771 5769 5768 5766 5765 5763 5762 5760 5759 5757 5756 5754 5753 5752 5750 5749 5747 5746 5745 5744 5742 5742 5741 5739 5738 5736 5735 5734 5732 5730 5728 5726 5725 5723
5787 5784 5781 5777 5774 5772 5770 5769 5767 5766 5765 5763 5761 5760 5759 5757 5756 5755 5753 5752 5751 5750 5748 5747 5745 5744 5743 5742 5741 5740 5739 5738 5737 5735 5734 5733 5732 5730 5728 5726 5724 5722 5721
5783 5780 5777 5774 5771 5768 5766 5765 5763 5762 5760 5759 5757 5756 5754 5753 5752 5750 5749 5748 5747 5746 5745 5743 5742 5741 5740 5739 5738 5738 5737 5737 5735 5733 5732 5731 5730 5728 5726 5725 5723 5721 5719
5780 5777 5774 5771 5768 5765 5763 5761 5759 5758 5756 5754 5753 5752 5751 5749 5748 5746 5745 5744 5743 5742 5741 5740 5739 5738 5737 5737 5736 5735 5735 5735 5733 5732 5730 5729 5728 5726 5725 5723 5721 5719 5717
5776 5773 5770 5766 5764 5761 5760 5758 5756 5754 5752 5750 5749 5748 5747 5745 5744 5743 5742 5740 5739 5738 5738 5737 5736 5736 5735 5734 5733 5733 5733 5732 5731 5730 5728 5727 5726 5724 5723 5721 5719 5718 5716
5773 5768 5765 5762 5760 5757 5755 5754 5752 5750 5748 5747 5745 5744 5743 5742 5741 5740 5739 5738 5736 5735 5734 5734 5733 5733 5732 5732 5731 5731 5730 5730 5729 5728 5727 5725 5724 5723 5722 5720 5718 5716 5715
5768 5764 5761 5758 5756 5754 5752 5750 5748 5746 5745 5743 5742 5741 5740 5739 5738 5737 5736 5734 5733 5733 5732 5731 5731 5730 5730 5729 5729 5729 5728 5728 5727 5727 5726 5725 5723 5721 5720 5719 5717 5715 5713
5762 5759 5757 5755 5753 5751 5749 5747 5745 5743 5741 5740 5739 5737 5736 5735 5735 5734 5732 5731 5730 5730 5729 5729 5729 5728 5728 5728 5727 5727 5726 5726 5725 5725 5724 5723 5722 5720 5719 5717 5715 5714 5712
5757 5754 5753 5752 5750 5747 5746 5744 5742 5740 5738 5736 5735 5734 5733 5732 5731 5730 5729 5728 5728 5727 5727 5726 5726 5726 5726 5726 5726 5725 5724 5724 5723 5723 5722 5721 5720 5719 5718 5716 5714 5712 5710
5756 5752 5750 5748 5747 5745 5743 5741 5739 5736 5734 5733 5732 5731 5729 5728 5727 5726 5725 5725 5724 5724 5724 5724 5724 5724 5724 5724 5723 5723 5722 5722 5721 5721 5721 5720 5719 5717 5716 5714 5712 5710 5708
5753 5750 5747 5746 5743 5742 5740 5739 5736 5733 5731 5729 5728 5727 5725 5724 5723 5722 5722 5722 5721 5721 5721 5720 5720 5720 5721 5721 5721 5720 5720 5720 5719 5719 5719 5718 5717 5715 5714 5712 5710 5708 5707
5747 5746 5745 5744 5741 5739 5737 5736 5734 5731 5728 5727 5725 5723 5722 5721 5720 5719 5719 5718 5718 5718 5717 5717 5716 5716 5717 5718 5718 5718 5718 5717 5717 5716 5716 5715 5714 5713 5711 5710 5708 5706 5704
5741 5740 5740 5739 5738 5734 5733 5732 5730 5728 5727 5725 5723 5721 5719 5718 5717 5716 5715 5715 5715 5715 5714 5713 5713 5713 5713 5713 5714 5714 5714 5714 5713 5712 5712 5711 5710 5709 5708 5706 5705 5704 5702
5736 5735 5735 5734 5733 5731 5728 5726 5724 5723 5722 5721 5719 5717 5716 5715 5714 5713 5712 5712 5711 5711 5711 5710 5709 5708 5708 5709 5709 5708 5708 5708 5708 5707 5706 5706 5705 5704 5703 5702 5701 5700 5698
5733 5732 5731 5731 5728 5726 5723 5721 5720 5718 5717 5716 5715 5713 5713 5712 5711 5710 5708 5708 5707 5707 5706 5705 5704 5703 5702 5702 5701 5701 5701 5701 5701 5700 5700 5699 5698 5698 5697 5696 5695 5694 5693
5728 5727 5727 5726 5724 5721 5719 5718 5716 5713 5712 5711 5709 5708 5707 5706 5706 5705 5704 5703 5702 5701 5700 5699 5698 5696 5695 5695 5694 5693 5693 5693 5693 5692 5691 5691 5690 5690 5689 5688 5687 5687 5687
5721 5721 5720 5719 5717 5716 5713 5710 5708 5706 5704 5703 5701 5700 5699 5699 5699 5699 5698 5696 5695 5694 5693 5692 5691 5689 5688 5688 5687 5685 5684 5684 5684 5683 5682 5682 5681 5681 5680 5680 5680 5680 5679
5711 5712 5712 5710 5711 5710 5707 5703 5700 5698 5695 5694 5692 5691 5691 5692 5691 5691 5689 5688 5687 5686 5685 5684 5683 5681 5679 5679 5677 5675 5674 5674 5674 5673 5672 5672 5671 5671 5670 5670 5670 5670 5670
5700 5701 5702 5702 5702 5703 5701 5697 5694 5689 5685 5682 5681 5681 5683 5682 5682 5682 5680 5678 5678 5677 5676 5675 5675 5674 5671 5669 5669 5667 5664 5664 5664 5663 5662 5662 5661 5660 5659 5659 5658 5658 5658
5689 5691 5693 5692 5694 5694 5694 5691 5686 5679 5675 5672 5671 5671 5671 5671 5671 5670 5670 5669 5669 5668 5666 5665 5665 5664 5662 5659 5659 5659 5657 5654 5652 5652 5650 5649 5649 5648 5647 5647 5647 5646 5645
5677 5680 5682 5683 5684 5685 5686 5683 5678 5672 5668 5663 5661 5659 5659 5659 5658 5658 5659 5658 5657 5657 5655 5654 5653 5653 5653 5650 5648 5646 5644 5643 5642 5641 5640 5637 5636 5634 5633 5633 5633 5632 5632
5666 5669 5671 5672 5673 5674 5675 5674 5670 5664 5660 5655 5652 5650 5648 5647 5647 5646 5646 5646 5646 5644 5643 5642 5642 5641 5640 5637 5634 5633 5632 5629 5628 5628 5626 5624 5622 5620 5618 5617 5617 5617 5617
5655 5657 5659 5661 5661 5661 5662 5662 5659 5655 5650 5647 5643 5640 5637 5635 5634 5633 5633 5634 5633 5632 5631 5630 5629 5628 5626 5624 5621 5619 5616 5614 5612 5611 5609 5607 5606 5605 5604 5602 5601 5601 5600